Miscellaneous Local Product
Issued by NWS North Platte, NE

Home | Current Version | Previous Version | Text Only | Print | Product List | Glossary On
Versions: 1 2 3 4 5 6 7 8 9 10 11 12 13 14 15 16 17 18 19 20 21 22 23 24 25 26 27 28 29 30 31 32 33 34 35 36 37 38 39 40 41 42 43 44 45 46 47 48 49 50
000
AXUS43 KLBF 200610
MISLBF


WESTERN AND NORTH CENTRAL NEBRASKA HOURLY WEATHER ROUNDUP
NATIONAL WEATHER SERVICE NORTH PLATTE NE
100 AM CDT WED AUG 20 2014

***STATIONS NOT REPORTING VARIABLES SUCH AS SKY/WEATHER OR
PRESSURE ARE PROVIDED BY THE NEBRASKA DEPARTMENT OF
ROADS...RAWS...AND APRS NETWORKS...AND ARE NOT UNDER
NATIONAL WEATHER SERVICE QUALITY CONTROL***

...OBSERVATIONS IN AND NEAR THE EASTERN PANHANDLE OF NEBRASKA...

CITY           SKY/WX    TMP DP  RH WIND       PRES   REMARKS
PINE RIDGE     CLOUDY    73  54  51 E14       29.78R
CHADRON        CLOUDY    76  50  40 S10       29.79R
ALLIANCE       CLOUDY    68  56  65 S6        29.83F
SIDNEY         PTCLDY    62  58  86 S5        29.86F
WHITECLAY        N/A     70  55  59 S14         N/A
RUSHVILLE        N/A     70  57  63 S12         N/A
GORDON           N/A     74  60  62 E14         N/A
CRESCENT LAKE    N/A     66  58  75 CALM        N/A
LISCO            N/A     68  57  67 E3          N/A
BIG SPRINGS      N/A     65  63  93 NE3         N/A
$$

...OBSERVATIONS IN NORTH CENTRAL NEBRASKA...

CITY           SKY/WX    TMP DP  RH WIND       PRES   REMARKS
VALENTINE      CLOUDY    75  68  78 SE5       29.79S
THEDFORD       CLOUDY    68  62  82 SW14      29.82F
AINSWORTH      CLOUDY    73  67  83 SE8       29.80F
O`NEILL        CLOUDY    73  68  83 SE8       29.81S
ORD            CLOUDY    72  68  87 SE6       29.79R
BROKEN BOW     CLOUDY    73  70  90 S5        29.81R
BROWNLEE         N/A     75  70  85 SW14        N/A
SPRINGVIEW       N/A     73  67  82 NE3         N/A
ROSE             N/A     76  74  93 E12         N/A
NEWPORT          N/A     73  70  89 E8          N/A
SARGENT          N/A     72  69  89 CALM        N/A
COMSTOCK         N/A     79  74  84 S7          N/A
CHAMBERS         N/A     71  67  86 E7          N/A
EWING            N/A     72  67  86 CALM        N/A
$$

...OBSERVATIONS IN SOUTHWEST NEBRASKA AND FAR NORTHEAST COLORADO...

CITY           SKY/WX    TMP DP  RH WIND       PRES   REMARKS
WRAY             N/A     69  61  75 E6        29.83R
IMPERIAL       CLOUDY    67  62  84 SE7       29.80F
OGALLALA       CLOUDY    66  63  91 E6        29.78F
NORTH PLATTE   LGT RAIN  69  64  84 NE9       29.81F
MCCOOK         CLOUDY    73  64  73 N5        29.81S
LEXINGTON      CLOUDY    73  67  83 SW3       29.82R
PAXTON           N/A     67  63  88 NW6         N/A
SUTHERLAND       N/A     68  65  92 CALM        N/A
BRADY            N/A     71  65  81 CALM        N/A
GOTHENBURG       N/A     76  62  61 S5          N/A
CALLAWAY         N/A     73  67  81 S9          N/A
$$

...SOME WEATHER OBSERVATIONS FROM AROUND THE REGION...

CITY           SKY/WX    TMP DP  RH WIND       PRES   REMARKS
DENVER         MOCLDY    65  56  72 SE6       29.93F
LARAMIE        CLOUDY    55  52  89 S8        30.05S
CHEYENNE       CLOUDY    62  51  67 W9        29.97F
SCOTTSBLUFF    MOCLDY    67  58  72 E7        29.84S
RAPID CITY     CLOUDY    68  61  78 S5        29.75S
PIERRE         TSTM      71  66  84 S15       29.72F
WINNER         FAIR      74  66  76 SE14      29.75F
SIOUX FALLS    FAIR      67  63  87 CALM      29.82R
OMAHA          MOCLDY    76  64  66 SE7       29.81R
GRAND ISLAND   FAIR      76  68  76 SE8       29.80R
KANSAS CITY    FAIR      75  70  84 S8        29.83R
WICHITA        FAIR      79  68  69 S13       29.85R
HAYS           FAIR      81  61  50 S18       29.81S
LIBERAL        FAIR      77  59  53 S13       29.90S
GOODLAND       CLOUDY    74  54  49 S9        29.86S
$$



USA.gov is the U.S. government's official web portal to all federal, state and local government web resources and services.